Zurück zum Katalog

COSMOS 2251 DEB

AktivLEO
NORAD 37295·DEBRIS·🇷🇺 Russia

Gestartet Jun 16, 1993 von Plesetsk Cosmodrome

Loading…

Nächste Überflüge (nächste 24 Stunden)

TLE

AktuellSource: Space-Track

Epoche: Sep 14, 2026, 06:30 UTC

1 37295U 93036BJK 26257.27124023  .00001475  00000-0  26723-3 0  9990
2 37295  74.0034 109.7531 0045384 220.1197 139.6619 14.66639013863425

Verfolge COSMOS 2251 DEB in Echtzeit mit AllMySat

Download on the App Store